Overview Statistics Trail Chart Weather Telemetry Raw packets
 

This is the latest recevied weather packets stored in our database for station/object K6CEG. If no packets are shown the sender has not sent any weather packets the latest 10 day(s).

<< 63 64 65 66 67 68 69 >>
Time Temp. Humidity Pressure Rain* Wind** Luminosity Snow
1788235313 21.67° C 54% 1014.9 hPa 0 mm - 0 W/m² -
1788235011 21.67° C 54% 1014.8 hPa 0 mm - 0 W/m² -
1788234711 22.22° C 55% 1014.8 hPa 0 mm - 0 W/m² -
1788234410 22.22° C 54% 1014.6 hPa 0 mm - 0 W/m² -
1788234110 22.22° C 55% 1014.8 hPa 0 mm - 0 W/m² -
1788233810 22.78° C 54% 1014.5 hPa 0 mm - 0 W/m² -
1788233509 22.78° C 53% 1014.5 hPa 0 mm - 0 W/m² -
1788233208 22.78° C 53% 1014.4 hPa 0 mm - 0 W/m² -
1788232903 22.22° C 52% 1014.4 hPa 0 mm - 0 W/m² -
1788232598 22.22° C 50% 1014.5 hPa 0 mm - 0 W/m² -
1788232295 22.78° C 49% 1014.7 hPa 0 mm - 0 W/m² -
1788231989 22.78° C 48% 1014.5 hPa 0 mm - 0 W/m² -
1788231684 22.78° C 47% 1014.7 hPa 0 mm - 0 W/m² -
1788231383 22.78° C 46% 1014.3 hPa 0 mm - 0 W/m² -
1788231079 23.33° C 45% 1014.5 hPa 0 mm - 0 W/m² -
1788230779 23.33° C 45% 1014.3 hPa 0 mm - 0 W/m² -
1788230477 23.89° C 46% 1014.5 hPa 0 mm - 0 W/m² -
1788230176 23.89° C 45% 1014.5 hPa 0 mm - 0 W/m² -
1788229871 24.44° C 45% 1014.4 hPa 0 mm - 0 W/m² -
1788229567 24.44° C 46% 1014.6 hPa 0 mm - 0 W/m² -
1788229262 24.44° C 44% 1014.3 hPa 0 mm - 0 W/m² -
1788228958 24.44° C 44% 1014.3 hPa 0 mm - 2 W/m² -
1788228652 24.44° C 44% 1014.5 hPa 0 mm - 4 W/m² -
1788228348 25° C 43% 1014.5 hPa 0 mm - 6 W/m² -
1788228043 25.56° C 40% 1014.5 hPa 0 mm - 10 W/m² -

* Rain latest hour (hover to see other rain measurements)
** Current wind speed in m/s (hover to see current wind gust speed)